Preview of NWS' New Version of Forecast
This preview is not operational and should not be used for support decisions.

Regional Weather Roundup (RWR)

Issued by National Weather Service (NWS)

                            
000
ASUS45 KABQ 180201
RWRNM 
NEW MEXICO REGIONAL WEATHER ROUNDUP
NATIONAL WEATHER SERVICE ALBUQUERQUE NM
800 PM MDT WED APR 17 2019

NOTE: "FAIR" MEANS FEW OR NO CLOUDS BELOW 12,000 FEET AGL WITH NO
       SIGNIFICANT WEATHER OR OBSTRUCTIONS TO VISION.

      THIS PRODUCT IS RELEASED AS TWO VERSIONS.  ONE VERSION NEAR
      THE TOP OF THE HOUR CONTAINING PRELIMINARY DATA FROM ALBUQUERQUE
      AND OTHER STATIONS.  A FINAL VERSION WITH ADDITIONAL DATA IS 
      ISSUED ABOUT 10 MINUTES AFTER THE HOUR.
 
NMZ501-503-504-510>518-180300-
NORTHWEST PLATEAU/NORTHCENTRAL MOUNTAINS
  
CITY           SKY/WX    TMP DP  RH WIND       PRES   REMARKS
FARMINGTON     FAIR      61  29  29 NW23G32   29.93R                  
LOS ALAMOS       N/A     47  36  66 NW10      30.04R                  
SANTA FE       CLOUDY    47  42  83 SW9       30.00R                  
TAOS           CLOUDY    45  39  79 SE7       30.03R                  

$$
NMZ402-403-502-505>509-180300-
WESTCENTRAL MOUNTAINS/SOUTHWEST MOUNTAINS
  
CITY           SKY/WX    TMP DP  RH WIND       PRES   REMARKS
GALLUP         FAIR      54  31  41 NW13G20   30.06R                  
GRANTS         CLOUDY    53  36  51 NW13G20   30.04R                  
SILVER CITY    FAIR      52  39  61 W9        30.05R                  

$$
NMZ407-409-411-412-180300-
SOUTHERN DESERTS
  
CITY           SKY/WX    TMP DP  RH WIND       PRES   REMARKS
DEMING         FAIR      60  40  47 W17       30.01R                  
LAS CRUCES     FAIR      58  41  52 W16       29.99R                  
HOLLOMAN AFB   MOCLDY    53  47  81 SE3       30.01R                  
ALAMOGORDO     MOCLDY    50  48  93 E6        29.99S                  
T OR C         LGT RAIN  57  43  59 N12G25    30.00R                  

$$
NMZ519>523-180300-
CENTRAL VALLEYS/CENTRAL HIGHLANDS
  
CITY           SKY/WX    TMP DP  RH WIND       PRES   REMARKS
ALBUQUERQUE    RAIN      48  46  93 SE15      29.98F                  
DOUBLE EAGLE   MOCLDY    46  45  93 E6        30.00S                  
CLINES CORNERS NOT AVBL                                               
BELEN          DRIZZLE   48  48 100 SW6       30.02R                  
SOCORRO        NOT AVBL                                               

$$
NMZ524>526-539-540-180300-
SOUTHCENTRAL MOUNTAINS
  
CITY           SKY/WX    TMP DP  RH WIND       PRES   REMARKS
RUIDOSO        CLOUDY    45  37  76 NW18G28   30.01R                  

$$
NMZ527>531-180300-
NORTHEAST HIGHLANDS/NORTHEAST PLAINS
  
CITY           SKY/WX    TMP DP  RH WIND       PRES   REMARKS
LAS VEGAS      FAIR      41  38  89 NW10      29.98R                  
RATON          FAIR      45  39  79 N17G25    29.96R                  
CLAYTON        MOCLDY    50  42  74 N12       29.86R                  

$$
NMZ532>537-180300-
EASTCENTRAL PLAINS
  
CITY           SKY/WX    TMP DP  RH WIND       PRES   REMARKS
SANTA ROSA     FAIR      50  40  69 NW6       29.91R                  
TUCUMCARI      LGT RAIN  51  46  83 NW9       29.83R                  
CANNON AFB     NOT AVBL                                               
CLOVIS AIRPORT LGT RAIN  46  43  89 NW10      29.87R                  

$$
NMZ028-029-538-180300-
SOUTHEAST PLAINS
  
CITY           SKY/WX    TMP DP  RH WIND       PRES   REMARKS
ROSWELL        MOCLDY    57  44  62 NW15G21   29.87R                  
ARTESIA        FAIR      57  45  62 NW10      29.89R                  
CARLSBAD       FAIR      61  39  44 W28G37    29.83S                  
HOBBS          FAIR      59  39  47 NW22G28   29.84R                  


$$